Regional Weather Roundup
Issued by NWS

Home | Current Version | Previous Version | Graphics & Text | Print | Product List | Glossary On
Versions: 1 2 3 4 5 6 7 8 9 10 11 12 13 14 15 16 17 18 19 20 21 22 23 24 25 26 27 28 29 30 31 32 33 34 35 36 37 38 39 40 41 42 43 44 45 46 47 48 49 50
000
ASUS45 KCYS 241710
RWRWY

WYOMING REGIONAL WEATHER ROUNDUP
NATIONAL WEATHER SERVICE CHEYENNE WY
1100 AM MDT MON JUL 24 2017

NOTE:  "FAIR" INDICATES FEW OR NO CLOUDS BELOW 12,000 FEET
WITH NO SIGNIFICANT WEATHER AND/OR OBSTRUCTIONS TO VISIBILITY.

WYZ001-241800-
YELLOWSTONE NATIONAL PARK

CITY           SKY/WX    TMP DP  RH WIND       PRES   REMARKS
LK YELLOWSTONE   N/A     68  48  48 VRB5      30.27F
W YELLOWSTONE  NOT AVBL

$$
WYZ002>013-054>058-071-098>099-241800-
NORTHERN WYOMING

CITY           SKY/WX    TMP DP  RH WIND       PRES   REMARKS
JACKSON        SUNNY     70  43  37 CALM      30.19S
CODY           FAIR      81  42  25 NE13      30.03F
GREYBULL       NOT AVBL
WORLAND        FAIR      88  40  18 CALM      29.95F
SHERIDAN       FAIR      92  43  18 N15G22    29.93S
BUFFALO        FAIR      91  33  12 N15G21    30.00S
GILLETTE       FAIR      92  40  16 W14       29.93S
HULETT         FAIR      86  52  30 SW9       29.95R
NEWCASTLE      FAIR      86  45  23 CALM      29.95S

$$
WYZ014>020-022>026-101>103-241800-
CENTRAL WYOMING

CITY           SKY/WX    TMP DP  RH WIND       PRES   REMARKS
BIG PINEY      FAIR      75  44  33 SW5       30.24F
PINEDALE       PTSUNNY   75  37  25 MISG      30.26S
DUBOIS         FAIR      79  30  17 W17G23    30.19F
LANDER         FAIR      84  36  18 N3        30.08S
RIVERTON       FAIR      84  34  16 VRB5      30.08F
CASPER         FAIR      89  32  13 SW13      30.06F
DOUGLAS        FAIR      93  32  11 W12       30.02S

$$
WYZ021-027>030-104>119-241800-
SOUTHERN WYOMING

CITY           SKY/WX    TMP DP  RH WIND       PRES   REMARKS
EVANSTON       CLOUDY    69  45  41 SW6       30.26S
KEMMERER         N/A     79  37  22 S5        30.26S
FORT BRIDGER   FAIR      74  41  29 SW5       30.28R
ROCK SPRINGS   CLOUDY    73  38  27 SW6       30.24R
RAWLINS        NOT AVBL
SARATOGA       FAIR      81  36  19 SW6       30.25S
LARAMIE        FAIR      82  34  17 VRB7      30.23F
CHEYENNE       FAIR      89  31  12 VRB3      30.13F
TORRINGTON     FAIR      88  44  21 NW5       29.96F
PINE BLUFFS    FAIR      86  48  26 S7        30.06F

$$



USA.gov is the U.S. government's official web portal to all federal, state and local government web resources and services.